Location: Ecklingerode
(51.5036°N, 10.3122°E)
Time: 14:33:03
(UTC+00:00)

Cosmos 1745 Rocket - Pass Details

Date: 29 October 2020
Orbit: 953 x 997 km, 83.0° (Epoch: 28 November)

Event Time Altitude Azimuth Distance (km) Brightness Sun altitude
Rises 18:05:52 0° 347° (NNW) 3,694 7.2 -20.6°
Reaches altitude 10° 18:08:24 10° 345° (NNW) 2,748 6.6 -21.0°
Maximum altitude 18:14:36 63° 266° (W) 1,103 4.5 -21.9°
Drops below altitude 10° 18:20:49 10° 187° (S) 2,754 6.4 -22.9°
Sets 18:23:22 0° 185° (S) 3,702 7.0 -23.3°
